| time (UTC) | temp F | wind direction | speed MPH | gust MPH | rain 1hr in | rain 24hr in | rain mn in | humidity % | barometer mb |
| 20260507014102 | 52 | 46 | 0.0 | 0.0 | 0.00 | 0.23 | 0.23 | 83 | 967.1 |
| 20260507013759 | 52 | 28 | 0.0 | 2.0 | 0.00 | 0.23 | 0.23 | 84 | 967.0 |
| 20260507013647 | 52 | 42 | 0.0 | 0.0 | 0.00 | 0.23 | 0.23 | 84 | 967.0 |
| 20260507012544 | 52 | 28 | 0.0 | 2.0 | 0.00 | 0.23 | 0.23 | 83 | 967.0 |
| 20260507012255 | 52 | 13 | 0.0 | 2.0 | 0.00 | 0.23 | 0.23 | 83 | 967.0 |
| 20260507011532 | 52 | 26 | 0.0 | 2.0 | 0.00 | 0.23 | 0.23 | 84 | 967.0 |
| 20260507011454 | 52 | 350 | 0.0 | 5.0 | 0.00 | 0.23 | 0.23 | 83 | 967.2 |
| 20260507011026 | 52 | 15 | 0.0 | 5.0 | 0.00 | 0.23 | 0.23 | 83 | 967.0 |
| 20260507010015 | 52 | 30 | 0.0 | 3.0 | 0.00 | 0.23 | 0.23 | 83 | 967.1 |
| 20260507005508 | 52 | 317 | 0.0 | 3.0 | 0.00 | 0.23 | 0.23 | 83 | 966.9 |
| 20260507005002 | 52 | 12 | 0.0 | 3.0 | 0.00 | 0.23 | 0.23 | 83 | 966.8 |
| 20260507004456 | 52 | 117 | 0.0 | 2.0 | 0.00 | 0.23 | 0.23 | 84 | 966.9 |
| 20260507003950 | 52 | 39 | 0.0 | 2.0 | 0.00 | 0.23 | 0.23 | 84 | 967.1 |
| 20260507003709 | 53 | 9 | 0.0 | 1.0 | 0.00 | 0.23 | 0.23 | 84 | 966.9 |
| 20260507002938 | 53 | 33 | 0.0 | 1.0 | 0.00 | 0.23 | 0.23 | 84 | 966.8 |
| 20260507002915 | 53 | 14 | 0.0 | 2.0 | 0.00 | 0.23 | 0.23 | 86 | 966.7 |
| 20260507001926 | 53 | 26 | 1.0 | 5.0 | 0.00 | 0.23 | 0.23 | 85 | 966.6 |
| 20260507001420 | 53 | 73 | 0.0 | 5.0 | 0.00 | 0.23 | 0.23 | 85 | 966.4 |
| 20260507000914 | 53 | 38 | 0.0 | 2.0 | 0.00 | 0.23 | 0.23 | 85 | 966.3 |
| 20260507000636 | 53 | 340 | 0.0 | 2.0 | 0.00 | 0.23 | 0.23 | 85 | 966.3 |
| 20260506235902 | 53 | 329 | 1.0 | 6.0 | 0.00 | 0.23 | 0.23 | 85 | 966.2 |
| 20260506235356 | 53 | 32 | 1.0 | 6.0 | 0.00 | 0.23 | 0.23 | 84 | 965.9 |
| 20260506234849 | 53 | 169 | 0.0 | 4.0 | 0.00 | 0.23 | 0.23 | 84 | 966.0 |
| 20260506234344 | 53 | 324 | 1.0 | 5.0 | 0.00 | 0.23 | 0.23 | 84 | 965.9 |
| 20260506233838 | 53 | 76 | 1.0 | 5.0 | 0.00 | 0.23 | 0.23 | 84 | 965.8 |
| 20260506233332 | 53 | 30 | 0.0 | 5.0 | 0.00 | 0.23 | 0.23 | 84 | 965.7 |
| 20260506232826 | 53 | 313 | 0.0 | 5.0 | 0.00 | 0.23 | 0.23 | 85 | 965.7 |
| 20260506232320 | 53 | 294 | 1.0 | 4.0 | 0.00 | 0.23 | 0.23 | 85 | 965.4 |
| 20260506231820 | 53 | 11 | 1.0 | 4.0 | 0.00 | 0.23 | 0.23 | 84 | 965.4 |
| 20260506231316 | 53 | 51 | 0.0 | 4.0 | 0.00 | 0.23 | 0.23 | 84 | 965.5 |
| 20260506230817 | 53 | 24 | 1.0 | 5.0 | 0.00 | 0.23 | 0.23 | 84 | 965.3 |
| 20260506230320 | 53 | 57 | 1.0 | 5.0 | 0.00 | 0.23 | 0.23 | 84 | 965.4 |
| 20260506225815 | 53 | 302 | 2.0 | 8.0 | 0.00 | 0.23 | 0.23 | 84 | 965.6 |
| 20260506225315 | 53 | 18 | 2.0 | 8.0 | 0.00 | 0.23 | 0.23 | 84 | 965.6 |
| 20260506224816 | 54 | 78 | 2.0 | 9.0 | 0.00 | 0.23 | 0.23 | 84 | 965.6 |
| 20260506224538 | 54 | 42 | 1.0 | 9.0 | 0.00 | 0.23 | 0.23 | 85 | 965.6 |
| 20260506223815 | 54 | 311 | 2.0 | 7.0 | 0.00 | 0.23 | 0.23 | 85 | 965.5 |
| 20260506223316 | 55 | 342 | 2.0 | 7.0 | 0.00 | 0.23 | 0.23 | 84 | 965.4 |
| 20260506223134 | 55 | 66 | 1.0 | 5.0 | 0.00 | 0.23 | 0.23 | 84 | 965.2 |
| 20260506223041 | 55 | 297 | 1.0 | 6.0 | 0.00 | 0.23 | 0.23 | 84 | 965.0 |
| 20260506221813 | 55 | 325 | 1.0 | 6.0 | 0.00 | 0.23 | 0.23 | 84 | 964.9 |
| 20260506221313 | 56 | 269 | 1.0 | 5.0 | 0.00 | 0.23 | 0.23 | 83 | 964.9 |
| 20260506220813 | 56 | 265 | 1.0 | 4.0 | 0.00 | 0.23 | 0.23 | 84 | 964.8 |
| 20260506220313 | 56 | 271 | 1.0 | 4.0 | 0.00 | 0.23 | 0.23 | 83 | 964.8 |
| 20260506215808 | 56 | 305 | 1.0 | 4.0 | 0.00 | 0.23 | 0.23 | 83 | 964.8 |
| 20260506215530 | 56 | 296 | 1.0 | 5.0 | 0.00 | 0.23 | 0.23 | 82 | 964.8 |
| 20260506215032 | 56 | 307 | 1.0 | 5.0 | 0.00 | 0.23 | 0.23 | 83 | 964.7 |
| 20260506214305 | 56 | 17 | 1.0 | 10.0 | 0.00 | 0.23 | 0.23 | 83 | 964.7 |
| 20260506213805 | 57 | 320 | 2.0 | 10.0 | 0.00 | 0.23 | 0.23 | 83 | 964.6 |
| 20260506213304 | 57 | 315 | 2.0 | 7.0 | 0.00 | 0.23 | 0.23 | 83 | 964.4 |
| 20260506212806 | 58 | 248 | 2.0 | 6.0 | 0.00 | 0.23 | 0.23 | 82 | 964.4 |
| 20260506212307 | 58 | 252 | 2.0 | 6.0 | 0.00 | 0.23 | 0.23 | 82 | 964.3 |
| 20260506211804 | 58 | 284 | 1.0 | 6.0 | 0.00 | 0.23 | 0.23 | 81 | 964.1 |
| 20260506211303 | 59 | 294 | 1.0 | 6.0 | 0.00 | 0.23 | 0.23 | 82 | 963.9 |
| 20260506210802 | 59 | 303 | 1.0 | 6.0 | 0.00 | 0.23 | 0.23 | 81 | 963.8 |
| 20260506210303 | 59 | 292 | 1.0 | 6.0 | 0.00 | 0.23 | 0.23 | 82 | 963.8 |
| 20260506205803 | 59 | 298 | 2.0 | 5.0 | 0.00 | 0.23 | 0.23 | 84 | 963.8 |
| 20260506205300 | 59 | 303 | 2.0 | 7.0 | 0.00 | 0.23 | 0.23 | 83 | 963.8 |
| 20260506204802 | 59 | 309 | 1.0 | 7.0 | 0.00 | 0.23 | 0.23 | 82 | 963.8 |
| 20260506204258 | 59 | 311 | 1.0 | 6.0 | 0.00 | 0.24 | 0.23 | 84 | 963.7 |
| 20260506203756 | 59 | 209 | 1.0 | 5.0 | 0.00 | 0.27 | 0.23 | 84 | 963.7 |
| 20260506203255 | 59 | 207 | 0.0 | 3.0 | 0.00 | 0.27 | 0.23 | 84 | 963.6 |
| 20260506202755 | 59 | 291 | 0.0 | 4.0 | 0.00 | 0.27 | 0.23 | 85 | 963.6 |
| 20260506202255 | 59 | 207 | 1.0 | 7.0 | 0.00 | 0.27 | 0.23 | 85 | 963.6 |
| 20260506201753 | 59 | 297 | 1.0 | 7.0 | 0.00 | 0.27 | 0.23 | 86 | 963.5 |
| 20260506201252 | 59 | 267 | 1.0 | 6.0 | 0.00 | 0.27 | 0.23 | 86 | 963.5 |
| 20260506200754 | 59 | 313 | 1.0 | 6.0 | 0.00 | 0.27 | 0.23 | 87 | 963.4 |
| 20260506200254 | 59 | 237 | 1.0 | 7.0 | 0.00 | 0.27 | 0.23 | 87 | 963.4 |
| 20260506195753 | 59 | 239 | 1.0 | 8.0 | 0.00 | 0.27 | 0.23 | 87 | 963.3 |
| 20260506195726 | 60 | 284 | 1.0 | 5.0 | 0.00 | 0.27 | 0.23 | 88 | 963.2 |
| 20260506195345 | 59 | 226 | 1.0 | 8.0 | 0.00 | 0.27 | 0.23 | 87 | 963.1 |
| 20260506194253 | 60 | 220 | 2.0 | 8.0 | 0.00 | 0.27 | 0.23 | 88 | 963.1 |
| 20260506193753 | 60 | 245 | 3.0 | 8.0 | 0.00 | 0.27 | 0.23 | 88 | 963.0 |
| 20260506193252 | 60 | 300 | 2.0 | 8.0 | 0.00 | 0.27 | 0.23 | 87 | 962.9 |
| 20260506192752 | 61 | 299 | 1.0 | 6.0 | 0.00 | 0.27 | 0.23 | 87 | 962.9 |
| 20260506192512 | 61 | 217 | 1.0 | 4.0 | 0.00 | 0.27 | 0.23 | 86 | 962.8 |
| 20260506191754 | 62 | 233 | 1.0 | 4.0 | 0.00 | 0.27 | 0.23 | 87 | 962.7 |
| 20260506191252 | 62 | 298 | 1.0 | 5.0 | 0.00 | 0.27 | 0.23 | 88 | 962.8 |
| 20260506190754 | 62 | 219 | 0.0 | 5.0 | 0.00 | 0.27 | 0.23 | 88 | 962.7 |
| 20260506190518 | 62 | 254 | 0.0 | 2.0 | 0.00 | 0.27 | 0.23 | 89 | 962.6 |
| 20260506185753 | 62 | 267 | 0.0 | 4.0 | 0.00 | 0.27 | 0.23 | 88 | 962.6 |
| 20260506185251 | 62 | 150 | 0.0 | 4.0 | 0.00 | 0.27 | 0.23 | 89 | 962.6 |
| 20260506184752 | 62 | 285 | 0.0 | 2.0 | 0.00 | 0.27 | 0.23 | 91 | 962.5 |
| 20260506184250 | 62 | 200 | 0.0 | 3.0 | 0.01 | 0.27 | 0.23 | 92 | 962.6 |
| 20260506183751 | 61 | 214 | 0.0 | 3.0 | 0.01 | 0.27 | 0.23 | 93 | 962.6 |
| 20260506183746 | 60 | 187 | 0.0 | 5.0 | 0.01 | 0.27 | 0.23 | 93 | 962.7 |
| 20260506182751 | 60 | 224 | 0.0 | 5.0 | 0.01 | 0.27 | 0.23 | 95 | 962.7 |
| 20260506182246 | 60 | 229 | 0.0 | 2.0 | 0.01 | 0.27 | 0.23 | 95 | 962.6 |
| 20260506182223 | 59 | 278 | 0.0 | 4.0 | 0.02 | 0.27 | 0.23 | 95 | 962.7 |
| 20260506181236 | 59 | 295 | 0.0 | 4.0 | 0.02 | 0.27 | 0.23 | 94 | 962.6 |
| 20260506180732 | 59 | 211 | 1.0 | 7.0 | 0.02 | 0.27 | 0.23 | 95 | 962.6 |
| 20260506180234 | 59 | 300 | 0.0 | 7.0 | 0.02 | 0.27 | 0.23 | 96 | 962.7 |
| 20260506175951 | 59 | 298 | 0.0 | 4.0 | 0.02 | 0.27 | 0.23 | 97 | 962.6 |
| 20260506175228 | 59 | 207 | 0.0 | 4.0 | 0.02 | 0.27 | 0.23 | 97 | 962.6 |
| 20260506174728 | 59 | 299 | 0.0 | 2.0 | 0.02 | 0.27 | 0.23 | 97 | 962.6 |
| 20260506174449 | 60 | 309 | 0.0 | 4.0 | 0.01 | 0.26 | 0.22 | 96 | 962.6 |
| 20260506173728 | 60 | 309 | 0.0 | 4.0 | 0.01 | 0.26 | 0.22 | 96 | 962.4 |
| 20260506173225 | 60 | 167 | 0.0 | 3.0 | 0.01 | 0.26 | 0.22 | 96 | 962.4 |
| 20260506173212 | 60 | 234 | 0.0 | 2.0 | 0.01 | 0.26 | 0.22 | 96 | 962.3 |
| 20260506172222 | 60 | 258 | 0.0 | 0.0 | 0.01 | 0.26 | 0.22 | 95 | 962.4 |
| 20260506171722 | 60 | 346 | 0.0 | 2.0 | 0.00 | 0.25 | 0.21 | 95 | 962.3 |
| 20260506171218 | 60 | 143 | 0.0 | 4.0 | 0.00 | 0.25 | 0.21 | 94 | 962.3 |
| 20260506171200 | 60 | 227 | 0.0 | 4.0 | 0.00 | 0.25 | 0.21 | 94 | 962.2 |
| 20260506170439 | 60 | 220 | 0.0 | 1.0 | 0.00 | 0.25 | 0.21 | 94 | 962.2 |
| 20260506165715 | 61 | 215 | 0.0 | 3.0 | 0.00 | 0.25 | 0.21 | 93 | 962.1 |
| 20260506165437 | 61 | 80 | 0.0 | 3.0 | 0.01 | 0.25 | 0.21 | 93 | 962.1 |
| 20260506164715 | 61 | 252 | 0.0 | 5.0 | 0.01 | 0.25 | 0.21 | 94 | 962.0 |
| 20260506164215 | 62 | 215 | 0.0 | 5.0 | 0.01 | 0.25 | 0.21 | 95 | 962.1 |
| 20260506163709 | 61 | 213 | 0.0 | 3.0 | 0.01 | 0.25 | 0.21 | 95 | 962.2 |
| 20260506163203 | 61 | 223 | 0.0 | 3.0 | 0.01 | 0.25 | 0.21 | 96 | 962.2 |
| 20260506162656 | 61 | 173 | 0.0 | 1.0 | 0.01 | 0.25 | 0.21 | 96 | 962.2 |
| 20260506162415 | 60 | 238 | 0.0 | 2.0 | 0.01 | 0.25 | 0.21 | 96 | 962.2 |
| 20260506161645 | 60 | 188 | 0.0 | 3.0 | 0.01 | 0.25 | 0.21 | 96 | 962.3 |
| 20260506161139 | 60 | 209 | 0.0 | 3.0 | 0.01 | 0.25 | 0.21 | 97 | 962.2 |
| 20260506160853 | 60 | 211 | 0.0 | 2.0 | 0.01 | 0.25 | 0.21 | 98 | 962.2 |
| 20260506160127 | 59 | 253 | 0.0 | 0.0 | 0.01 | 0.25 | 0.21 | 97 | 962.2 |
| 20260506155850 | 59 | 192 | 0.0 | 0.0 | 0.01 | 0.25 | 0.21 | 97 | 962.2 |
| 20260506155115 | 58 | 171 | 0.0 | 2.0 | 0.00 | 0.24 | 0.20 | 97 | 962.3 |
| 20260506154609 | 58 | 236 | 0.0 | 2.0 | 0.00 | 0.24 | 0.20 | 97 | 962.3 |
| 20260506154328 | 58 | 268 | 0.0 | 0.0 | 0.00 | 0.24 | 0.20 | 97 | 962.3 |
| 20260506153557 | 58 | 331 | 0.0 | 4.0 | 0.00 | 0.24 | 0.20 | 97 | 962.3 |
| 20260506153051 | 58 | 289 | 0.0 | 3.0 | 0.00 | 0.24 | 0.20 | 96 | 962.2 |
| 20260506152544 | 58 | 149 | 0.0 | 1.0 | 0.00 | 0.24 | 0.20 | 96 | 962.2 |
| 20260506152039 | 58 | 192 | 0.0 | 1.0 | 0.00 | 0.24 | 0.20 | 96 | 962.1 |
| 20260506151533 | 58 | 211 | 0.0 | 1.0 | 0.00 | 0.24 | 0.20 | 96 | 962.1 |
| 20260506151027 | 58 | 200 | 0.0 | 3.0 | 0.01 | 0.24 | 0.20 | 96 | 962.1 |
| 20260506150521 | 58 | 200 | 0.0 | 3.0 | 0.01 | 0.24 | 0.20 | 96 | 962.0 |
| 20260506150015 | 58 | 258 | 0.0 | 3.0 | 0.01 | 0.24 | 0.20 | 96 | 962.0 |
| 20260506145508 | 58 | 246 | 0.0 | 3.0 | 0.01 | 0.24 | 0.20 | 96 | 962.0 |
| 20260506145003 | 57 | 215 | 0.0 | 1.0 | 0.01 | 0.24 | 0.20 | 97 | 961.8 |
| 20260506144457 | 57 | 220 | 0.0 | 1.0 | 0.01 | 0.24 | 0.20 | 97 | 961.8 |
| 20260506143951 | 57 | 265 | 0.0 | 3.0 | 0.02 | 0.24 | 0.20 | 97 | 961.8 |
| 20260506143702 | 57 | 277 | 0.0 | 3.0 | 0.02 | 0.24 | 0.20 | 97 | 961.8 |
| 20260506142939 | 57 | 302 | 0.0 | 1.0 | 0.02 | 0.24 | 0.20 | 97 | 961.9 |
| 20260506142433 | 57 | 286 | 0.0 | 2.0 | 0.02 | 0.24 | 0.20 | 97 | 961.8 |
| 20260506141927 | 57 | 145 | 0.0 | 2.0 | 0.02 | 0.24 | 0.20 | 97 | 961.7 |
| 20260506141421 | 57 | 213 | 0.0 | 2.0 | 0.03 | 0.24 | 0.20 | 97 | 961.6 |
| 20260506140915 | 57 | 250 | 0.0 | 2.0 | 0.02 | 0.23 | 0.19 | 97 | 961.7 |
| 20260506140409 | 57 | 215 | 0.0 | 0.0 | 0.02 | 0.23 | 0.19 | 97 | 961.7 |
| 20260506135903 | 57 | 161 | 0.0 | 2.0 | 0.02 | 0.23 | 0.19 | 97 | 961.8 |
| 20260506135356 | 57 | 273 | 0.0 | 2.0 | 0.02 | 0.23 | 0.19 | 97 | 961.6 |
| 20260506135119 | 57 | 223 | 0.0 | 1.0 | 0.02 | 0.23 | 0.19 | 97 | 961.8 |
| 20260506134345 | 57 | 284 | 0.0 | 1.0 | 0.02 | 0.23 | 0.19 | 97 | 961.8 |
| 20260506133838 | 56 | 197 | 0.0 | 0.0 | 0.01 | 0.22 | 0.18 | 97 | 961.8 |
| 20260506133559 | 56 | 198 | 0.0 | 0.0 | 0.01 | 0.22 | 0.18 | 97 | 961.8 |
| 20260506133056 | 56 | 195 | 0.0 | 0.0 | 0.01 | 0.22 | 0.18 | 97 | 961.8 |
| 20260506132321 | 56 | 195 | 0.0 | 0.0 | 0.01 | 0.22 | 0.18 | 97 | 962.0 |
| 20260506132032 | 56 | 196 | 0.0 | 0.0 | 0.02 | 0.22 | 0.18 | 97 | 962.0 |
| 20260506131309 | 56 | 196 | 0.0 | 0.0 | 0.02 | 0.21 | 0.17 | 97 | 962.0 |
| 20260506131023 | 56 | 196 | 0.0 | 0.0 | 0.04 | 0.21 | 0.17 | 97 | 962.0 |
| 20260506130258 | 56 | 197 | 0.0 | 0.0 | 0.05 | 0.21 | 0.17 | 96 | 962.0 |
| 20260506130014 | 56 | 257 | 0.0 | 0.0 | 0.06 | 0.21 | 0.17 | 96 | 962.0 |
| 20260506125733 | 56 | 164 | 0.0 | 2.0 | 0.07 | 0.21 | 0.17 | 96 | 961.9 |
| 20260506124739 | 56 | 289 | 0.0 | 2.0 | 0.08 | 0.21 | 0.17 | 96 | 961.9 |
| 20260506124233 | 56 | 261 | 0.0 | 3.0 | 0.09 | 0.21 | 0.17 | 96 | 962.1 |
| 20260506123948 | 56 | 261 | 0.0 | 3.0 | 0.10 | 0.21 | 0.17 | 96 | 961.9 |
| 20260506123221 | 56 | 131 | 0.0 | 0.0 | 0.12 | 0.21 | 0.17 | 96 | 961.8 |
| 20260506122715 | 56 | 131 | 0.0 | 0.0 | 0.12 | 0.21 | 0.17 | 96 | 962.0 |
| 20260506122209 | 56 | 131 | 0.0 | 0.0 | 0.14 | 0.21 | 0.17 | 96 | 961.8 |
| 20260506121920 | 56 | 131 | 0.0 | 0.0 | 0.13 | 0.20 | 0.16 | 96 | 961.9 |
| 20260506121203 | 56 | 131 | 0.0 | 0.0 | 0.11 | 0.18 | 0.15 | 96 | 961.9 |
| 20260506120659 | 56 | 131 | 0.0 | 0.0 | 0.11 | 0.17 | 0.13 | 96 | 962.1 |
| 20260506120200 | 56 | 138 | 0.0 | 1.0 | 0.10 | 0.16 | 0.12 | 96 | 962.2 |
| 20260506115704 | 56 | 141 | 0.0 | 1.0 | 0.09 | 0.15 | 0.11 | 96 | 962.3 |
| 20260506115158 | 56 | 289 | 0.0 | 0.0 | 0.08 | 0.14 | 0.10 | 96 | 962.3 |
| 20260506114656 | 57 | 292 | 0.0 | 0.0 | 0.07 | 0.13 | 0.09 | 96 | 962.4 |
| 20260506114157 | 57 | 292 | 0.0 | 0.0 | 0.06 | 0.12 | 0.08 | 96 | 962.5 |
| 20260506113655 | 57 | 292 | 0.0 | 1.0 | 0.05 | 0.11 | 0.07 | 96 | 962.4 |
| 20260506113155 | 57 | 292 | 0.0 | 1.0 | 0.03 | 0.09 | 0.06 | 96 | 962.5 |
| 20260506112655 | 57 | 15 | 0.0 | 0.0 | 0.02 | 0.08 | 0.05 | 96 | 962.5 |
| 20260506112153 | 57 | 15 | 0.0 | 0.0 | 0.02 | 0.07 | 0.03 | 96 | 962.5 |
| 20260506111651 | 57 | 16 | 0.0 | 0.0 | 0.02 | 0.07 | 0.03 | 96 | 962.3 |
| 20260506111153 | 57 | 16 | 0.0 | 0.0 | 0.02 | 0.07 | 0.03 | 96 | 962.1 |
| 20260506110651 | 57 | 16 | 0.0 | 0.0 | 0.01 | 0.07 | 0.02 | 96 | 962.1 |
| 20260506110148 | 57 | 16 | 0.0 | 0.0 | 0.01 | 0.08 | 0.02 | 95 | 962.0 |
| 20260506105647 | 57 | 17 | 0.0 | 0.0 | 0.02 | 0.08 | 0.02 | 95 | 961.9 |
| 20260506105149 | 57 | 16 | 0.0 | 0.0 | 0.02 | 0.08 | 0.02 | 95 | 961.9 |
| 20260506104644 | 57 | 16 | 0.0 | 0.0 | 0.02 | 0.12 | 0.02 | 94 | 961.9 |
| 20260506104402 | 57 | 17 | 0.0 | 0.0 | 0.02 | 0.12 | 0.02 | 94 | 962.0 |
| 20260506103641 | 57 | 16 | 0.0 | 0.0 | 0.02 | 0.12 | 0.02 | 94 | 962.0 |
| 20260506103142 | 57 | 17 | 0.0 | 0.0 | 0.02 | 0.12 | 0.02 | 93 | 962.0 |
| 20260506102911 | 58 | 17 | 0.0 | 0.0 | 0.02 | 0.12 | 0.02 | 92 | 962.0 |
| 20260506102143 | 58 | 16 | 0.0 | 0.0 | 0.01 | 0.11 | 0.01 | 92 | 962.0 |
| 20260506101642 | 58 | 16 | 0.0 | 0.0 | 0.01 | 0.11 | 0.01 | 91 | 961.9 |
| 20260506101142 | 58 | 17 | 0.0 | 0.0 | 0.01 | 0.11 | 0.01 | 91 | 962.0 |
| 20260506100643 | 58 | 16 | 0.0 | 0.0 | 0.01 | 0.11 | 0.01 | 90 | 962.0 |
| 20260506100356 | 58 | 16 | 0.0 | 0.0 | 0.01 | 0.11 | 0.01 | 90 | 962.1 |
| 20260506095639 | 58 | 16 | 0.0 | 0.0 | 0.00 | 0.10 | 0.00 | 89 | 962.1 |
| 20260506095138 | 58 | 16 | 0.0 | 0.0 | 0.00 | 0.10 | 0.00 | 89 | 961.9 |
| 20260506094637 | 59 | 17 | 0.0 | 0.0 | 0.00 | 0.10 | 0.00 | 89 | 961.9 |
| 20260506093900 | 59 | 17 | 0.0 | 0.0 | 0.00 | 0.10 | 0.00 | 87 | 961.7 |
| 20260506093138 | 59 | 17 | 0.0 | 0.0 | 0.00 | 0.10 | 0.00 | 86 | 961.6 |
| 20260506092904 | 60 | 16 | 0.0 | 0.0 | 0.00 | 0.10 | 0.00 | 86 | 961.6 |
| 20260506092138 | 60 | 257 | 0.0 | 0.0 | 0.00 | 0.10 | 0.00 | 85 | 961.7 |
| 20260506091903 | 60 | 257 | 0.0 | 0.0 | 0.00 | 0.10 | 0.00 | 83 | 961.8 |
| 20260506091140 | 61 | 257 | 0.0 | 0.0 | 0.00 | 0.10 | 0.00 | 82 | 961.8 |
| 20260506090638 | 61 | 257 | 0.0 | 0.0 | 0.00 | 0.10 | 0.00 | 81 | 961.8 |
| 20260506090138 | 61 | 257 | 0.0 | 0.0 | 0.00 | 0.10 | 0.00 | 79 | 961.9 |
| 20260506085637 | 62 | 257 | 0.0 | 0.0 | 0.00 | 0.10 | 0.00 | 78 | 962.0 |
| 20260506085138 | 62 | 257 | 0.0 | 0.0 | 0.00 | 0.10 | 0.00 | 76 | 962.0 |
| 20260506084638 | 62 | 257 | 0.0 | 0.0 | 0.00 | 0.10 | 0.00 | 76 | 962.1 |
| 20260506084137 | 62 | 257 | 0.0 | 0.0 | 0.00 | 0.10 | 0.00 | 75 | 962.2 |
| 20260506083636 | 62 | 228 | 0.0 | 0.0 | 0.00 | 0.10 | 0.00 | 75 | 962.3 |
| 20260506083137 | 62 | 197 | 0.0 | 3.0 | 0.00 | 0.10 | 0.00 | 73 | 962.4 |
| 20260506082853 | 63 | 301 | 0.0 | 3.0 | 0.00 | 0.10 | 0.00 | 73 | 962.3 |
| 20260506082136 | 63 | 294 | 0.0 | 2.0 | 0.00 | 0.10 | 0.00 | 73 | 962.6 |
| 20260506081632 | 63 | 273 | 0.0 | 3.0 | 0.00 | 0.10 | 0.00 | 72 | 962.6 |
| 20260506081610 | 63 | 302 | 0.0 | 3.0 | 0.00 | 0.10 | 0.00 | 72 | 962.5 |
| 20260506080632 | 63 | 302 | 0.0 | 3.0 | 0.00 | 0.10 | 0.00 | 71 | 962.3 |
| 20260506080352 | 63 | 277 | 0.0 | 3.0 | 0.00 | 0.10 | 0.00 | 71 | 962.2 |
| 20260506073129 | 64 | 203 | 1.0 | 7.0 | 0.00 | 0.10 | 0.00 | 67 | 962.6 |
| 20260506072623 | 64 | 288 | 0.0 | 1.0 | 0.00 | 0.10 | 0.00 | 66 | 962.6 |
| 20260506072117 | 64 | 267 | 0.0 | 5.0 | 0.00 | 0.10 | 0.00 | 65 | 962.5 |
| 20260506071611 | 65 | 302 | 1.0 | 5.0 | 0.00 | 0.10 | 0.00 | 65 | 962.7 |
| 20260506071104 | 65 | 281 | 1.0 | 5.0 | 0.00 | 0.10 | 0.00 | 64 | 962.6 |
| 20260506070557 | 65 | 292 | 1.0 | 5.0 | 0.00 | 0.10 | 0.00 | 63 | 962.7 |
| 20260506062050 | 65 | 298 | 0.0 | 6.0 | 0.00 | 0.10 | 0.00 | 63 | 962.7 |
| 20260506061553 | 64 | 290 | 0.0 | 1.0 | 0.00 | 0.10 | 0.00 | 63 | 962.8 |
| 20260506061050 | 64 | 284 | 0.0 | 1.0 | 0.00 | 0.10 | 0.00 | 66 | 962.8 |
| 20260506060547 | 64 | 289 | 0.0 | 1.0 | 0.00 | 0.10 | 0.00 | 66 | 962.9 |
| 20260506050504 | 63 | 213 | 0.0 | 0.0 | 0.00 | 0.10 | 0.00 | 66 | 963.3 |
| 20260506050216 | 63 | 213 | 0.0 | 0.0 | 0.00 | 0.10 | 0.00 | 67 | 963.4 |
| 20260506044946 | 62 | 213 | 0.0 | 0.0 | 0.00 | 0.10 | 0.00 | 65 | 963.3 |
| 20260506044440 | 62 | 213 | 0.0 | 0.0 | 0.00 | 0.10 | 0.00 | 67 | 963.4 |
| 20260506043934 | 61 | 213 | 0.0 | 0.0 | 0.00 | 0.10 | 0.00 | 69 | 963.5 |
| 20260506043428 | 61 | 213 | 0.0 | 0.0 | 0.00 | 0.10 | 0.00 | 70 | 963.5 |
| 20260506042922 | 60 | 213 | 0.0 | 0.0 | 0.00 | 0.10 | 0.00 | 72 | 963.5 |
| 20260506042416 | 60 | 213 | 0.0 | 0.0 | 0.00 | 0.10 | 0.00 | 75 | 963.6 |
| 20260506041910 | 59 | 216 | 0.0 | 0.0 | 0.00 | 0.10 | 0.00 | 77 | 963.5 |
| 20260506041404 | 58 | 216 | 0.0 | 0.0 | 0.00 | 0.10 | 0.00 | 76 | 963.5 |
| 20260506040858 | 58 | 216 | 0.0 | 0.0 | 0.00 | 0.10 | 0.00 | 79 | 963.5 |
| 20260506040351 | 58 | 216 | 0.0 | 0.0 | 0.00 | 0.10 | 0.00 | 80 | 963.4 |
| 20260506040107 | 58 | 216 | 0.0 | 0.0 | 0.00 | 0.10 | 0.10 | 80 | 963.4 |
| 20260506035340 | 58 | 216 | 0.0 | 0.0 | 0.00 | 0.10 | 0.10 | 80 | 963.4 |
| 20260506035104 | 58 | 216 | 0.0 | 0.0 | 0.00 | 0.10 | 0.10 | 82 | 963.5 |
| 20260506034327 | 58 | 216 | 0.0 | 0.0 | 0.00 | 0.10 | 0.10 | 81 | 963.4 |
| 20260506033822 | 58 | 216 | 0.0 | 0.0 | 0.00 | 0.10 | 0.10 | 81 | 963.3 |
| 20260506033315 | 58 | 216 | 0.0 | 0.0 | 0.00 | 0.10 | 0.10 | 82 | 963.3 |
| 20260506032810 | 58 | 216 | 0.0 | 0.0 | 0.00 | 0.10 | 0.10 | 81 | 963.2 |
| 20260506032305 | 58 | 216 | 0.0 | 0.0 | 0.00 | 0.10 | 0.10 | 82 | 963.2 |
| 20260506032027 | 58 | 216 | 0.0 | 0.0 | 0.00 | 0.10 | 0.10 | 82 | 963.2 |
| 20260506031252 | 58 | 216 | 0.0 | 0.0 | 0.00 | 0.10 | 0.10 | 81 | 963.3 |
| 20260506030746 | 58 | 216 | 0.0 | 0.0 | 0.00 | 0.10 | 0.10 | 82 | 963.4 |
| 20260506030240 | 58 | 216 | 0.0 | 0.0 | 0.00 | 0.10 | 0.10 | 82 | 963.4 |
| 20260506025734 | 58 | 216 | 0.0 | 0.0 | 0.00 | 0.10 | 0.10 | 82 | 963.5 |
| 20260506025455 | 58 | 216 | 0.0 | 0.0 | 0.00 | 0.10 | 0.10 | 82 | 963.5 |
| 20260506024954 | 59 | 216 | 0.0 | 0.0 | 0.00 | 0.10 | 0.10 | 82 | 963.4 |
| 20260506024216 | 59 | 216 | 0.0 | 0.0 | 0.00 | 0.10 | 0.10 | 82 | 963.5 |
| 20260506023711 | 59 | 216 | 0.0 | 0.0 | 0.00 | 0.10 | 0.10 | 81 | 963.5 |
| 20260506023211 | 59 | 216 | 0.0 | 0.0 | 0.00 | 0.10 | 0.10 | 83 | 963.7 |
| 20260506022711 | 59 | 216 | 0.0 | 0.0 | 0.00 | 0.10 | 0.10 | 83 | 963.6 |
| 20260506022213 | 59 | 216 | 0.0 | 0.0 | 0.00 | 0.10 | 0.10 | 84 | 963.7 |
| 20260506022156 | 59 | 216 | 0.0 | 0.0 | 0.00 | 0.10 | 0.10 | 83 | 963.6 |
| 20260506021209 | 59 | 216 | 0.0 | 0.0 | 0.00 | 0.10 | 0.10 | 84 | 963.6 |
| 20260506020707 | 59 | 216 | 0.0 | 0.0 | 0.00 | 0.10 | 0.10 | 84 | 963.5 |
| 20260506020208 | 59 | 216 | 0.0 | 0.0 | 0.00 | 0.10 | 0.10 | 85 | 963.6 |
| 20260506015708 | 60 | 216 | 0.0 | 0.0 | 0.00 | 0.10 | 0.10 | 85 | 963.5 |
| 20260506015205 | 60 | 216 | 0.0 | 0.0 | 0.00 | 0.10 | 0.10 | 84 | 963.5 |
| 20260506014921 | 60 | 216 | 0.0 | 0.0 | 0.00 | 0.10 | 0.10 | 83 | 963.5 |
| 20260506014800 | 60 | 216 | 0.0 | 0.0 | 0.00 | 0.10 | 0.10 | 84 | 963.5 |